Find Starlink 30107

NORAD ID: 56287 Int'l Des: 2023-056 Owner: SPXS Country: US Constellation: starlink operational
LEOCIRCULAR

現在のビュー

3D地球を読み込み中...

About Starlink 30107

Starlink 30107 (NORAD 56287) is a starlink constellation satellite (v2 mini) launched Apr 19, 2023 by SPXS of US. It operates in LEO, CIRCULAR orbit with a mass of 730.00 kg.

Starlink 30107について

説明を読み込み中...

次回通過

Passes for default location (London). Set your location on the main map for personalized predictions.

高度履歴

Loading altitude history...

軌道要素

1 56287U 23056B 26170.52976618 .00000087 00000-0 12698-4 0 9999
2 56287 43.0010 336.0138 0001005 246.7222 113.3524 15.27575718175878
Epoch: Jun 19, 2026 • Age: 16 hours

現在のステータス

高度 483.0 km
速度 7.63 km/s
衛星直下点 24.15°N, 139.71°E
打ち上げ日 Apr 19, 2023
運用期間 3.1 years
タイプ internet

技術仕様

分類 Payload
質量 730.00 kg
乾燥質量 700.00 kg
総質量 730.00 kg
長さ 0.30 m
直径 4.10 m
スパン 29.00 m
形状 Box + pan
製造者 SPXS
バスタイプ Starlink V2M
フェーズステータス In Orbit
所有者/国 SPXS/US

Most Searched